sat.trackr.live / text

‹ back to catalog

LIZZIESAT-2 (LS-2)

NORAD 62383 · 2024-247G

PAYLOAD ACTIVE UNKNOWN

§ Identity

Operator
Country
US
Launch date
2024-12-21
Launch site
AFWTR
Launch vehicle
Mass (kg)
RCS (m²)

External: N2YO · Heavens-Above · Gunter

§ Orbital elements

Epoch: 2026-09-22T19:50:20.457888Z

Period
94.05 min
Inclination
44.9911°
Eccentricity
0.0000258
Mean motion
15.31120631 rev/d
Perigee alt
472.3 km
Apogee alt
472.6 km
Semi-major
6,850.6 km
B*
1.7288e-4
RAAN
116.0374°
Arg perigee
162.1678°
Mean anomaly
197.9215°
Rev number
9,793

§ Raw data

LIZZIESAT-2 (LS-2)1 62383U 24247G   26265.82662567  .00004994  00000+0  17288-3 0  99982 62383  44.9911 116.0374 0000258 162.1678 197.9215 15.31120631 97935

JSON: /api/v1/satellites/62383 · /tle

For live sub-satellite position, see the globe view (requires WebGL).

§ Visibility from observer

Set your observer location to see the next 7 days of passes ≥ 10°. The values pass through the URL so the page stays shareable.

No JS? Fill the form by hand. The geolocation button needs JavaScript.

§ Radio — SatNOGS DB

ModeDescriptionDownlinkUplink
FM Mode S - Transmitter 2.262 GHz
FM Mode S - Transmitter 2.201 GHz
FM Mode S - Transmitter 2.283 GHz
Mode X - Transmitter 8.379 GHz
FM Mode X - Transmitter 8.046 GHz

5 transmitters · refreshed weekly from db.satnogs.org